Location: Guayaquil
(2.1667°S, 79.9000°W)
Time: 17:31:58
(UTC-05:00)

Envisat - Visible Passes

Search period start: 26 May 2017 00:00
Search period end: 05 June 2017 00:00
Orbit: 764 x 766 km, 98.2° (Epoch: 25 May)

Date Brightness Start Highest point End Pass type
(mag) Time Alt. Az. Time Alt. Az. Time Alt. Az.
27 May 5.4 20:40:37 13° N 20:40:37 13° N 20:41:09 10° N visible
29 May 5.7 21:06:27 12° NNW 21:06:27 12° NNW 21:06:49 10° NNW visible
30 May 5.3 20:29:16 13° NNE 20:29:16 13° NNE 20:29:51 10° N visible
01 Jun 5.5 20:55:06 14° N 20:55:06 14° N 20:55:48 10° N visible
02 Jun 5.3 20:17:54 13° NNE 20:17:54 13° NNE 20:18:26 10° NNE visible
03 Jun 5.9 21:20:56 11° NNW 21:20:56 11° NNW 21:21:07 10° NNW visible
04 Jun 5.3 20:43:45 15° N 20:43:45 15° N 20:44:40 10° N visible
